• Join FlightAware (Why Join?)
  • Login
  • US Flag 
09:05AM EDT


 

Airport Tracker/Info


-or-


 

Live Flight TrackerFlight Track Log ✈ SKW2901 ✈ 05-May-2013 ✈ KSLC - KPHX

Flight Track Log - Related Links

Times and Time Zones

All times are in EDT time to prevent confusion due to time zone crossing. See the SKW2901 flight status page for this flight to view local times or setup timezone preferences in your user account.

Time Position Orientation Groundspeed Altitude Reporting Facility
EDT Latitude Longitude Course Direction KTS MPH feet Rate Location/Type
10:26AM 40.8075 -111.9619 299° West 258 297 4,900  Level Salt Lake Center
10:28AM 40.8375 -112.0339 299° West 234 269 6,900 1,860 Climbing Salt Lake Center
10:29AM 40.8239 -112.1311 260° West 266 306 9,200 2,040 Climbing Salt Lake Center
10:30AM 40.8028 -112.2306 254° West 282 325 11,200 1,740 Climbing Salt Lake Center
10:31AM 40.7264 -112.2806 206° Southwest 307 353 12,800 1,680 Climbing Salt Lake Center
10:32AM 40.6397 -112.3000 190° South 316 364 14,700 1,860 Climbing Salt Lake Center
10:33AM 40.5506 -112.3142 187° South 323 372 16,600 1,860 Climbing Salt Lake Center
10:34AM 40.4419 -112.3372 189° South 328 377 18,600 1,800 Climbing Salt Lake Center
10:35AM 40.3503 -112.3578 190° South 334 384 20,300 1,500 Climbing Salt Lake Center
10:36AM 40.2667 -112.4094 205° Southwest 335 386 21,700 1,020 Climbing Salt Lake Center
10:37AM 40.1817 -112.4689 208° Southwest 347 399 22,500 780 Climbing Salt Lake Center
10:38AM 40.0947 -112.5300 208° Southwest 357 411 23,400 900 Climbing Salt Lake Center
10:39AM 39.9981 -112.5650 196° South 373 429 24,400 1,020 Climbing Salt Lake Center
10:40AM 39.8956 -112.5614 178° South 370 426 25,500 960 Climbing Salt Lake Center
10:41AM 39.7922 -112.5581 179° South 370 426 26,400 780 Climbing Salt Lake Center
10:42AM 39.6856 -112.5528 178° South 381 438 27,100 660 Climbing Salt Lake Center
10:43AM 39.5553 -112.5481 178° South 389 448 27,800 780 Climbing Salt Lake Center
10:44AM 39.4456 -112.5417 177° South 393 452 28,800 900 Climbing Salt Lake Center
10:45AM 39.3369 -112.5375 178° South 392 451 29,700 840 Climbing Salt Lake Center
10:46AM 39.2203 -112.5336 179° South 387 445 30,600 780 Climbing Salt Lake Center
10:47AM 39.1139 -112.5281 178° South 383 441 31,400 960 Climbing Salt Lake Center
10:48AM 39.0100 -112.5228 178° South 376 433 32,600 780 Climbing Salt Lake Center
10:49AM 38.9089 -112.5192 178° South 365 420 33,000 180 Climbing Salt Lake Center
10:50AM 38.8050 -112.5158 179° South 373 429 33,000  Level Salt Lake Center
10:51AM 38.6972 -112.5114 178° South 384 442 33,000  Level Salt Lake Center
10:52AM 38.5878 -112.5078 179° South 392 451 33,000  Level Salt Lake Center
10:53AM 38.4778 -112.5028 178° South 396 456 33,000  Level Salt Lake Center
10:54AM 38.3664 -112.4983 178° South 399 459 33,000  Level Salt Lake Center
10:55AM 38.2325 -112.4917 178° South 400 460 33,000  Level Salt Lake Center
10:56AM 38.1203 -112.4867 178° South 402 463 33,000  Level Salt Lake Center
10:57AM 38.0083 -112.4817 178° South 402 463 33,000  Level Salt Lake Center
10:58AM 37.8964 -112.4769 178° South 401 461 33,000  Level Salt Lake Center
10:59AM 37.7825 -112.4717 178° South 405 466 33,000  Level Salt Lake Center
11:00AM 37.6700 -112.4656 178° South 403 464 33,000  Level Salt Lake Center
11:01AM 37.5553 -112.4603 178° South 405 466 33,000  Level Salt Lake Center
11:02AM 37.4414 -112.4550 178° South 406 467 33,000  Level Salt Lake Center
11:04AM 37.3036 -112.4506 179° South 406 467 33,000  Level Los Angeles Center
11:05AM 37.1894 -112.4450 178° South 408 470 33,000  Level Los Angeles Center
11:06AM 37.0758 -112.4400 178° South 409 471 33,000  Level Los Angeles Center
11:07AM 36.9611 -112.4358 178° South 411 473 33,000  Level Los Angeles Center
11:08AM 36.8469 -112.4331 179° South 410 472 33,000  Level Los Angeles Center
11:09AM 36.7322 -112.4281 178° South 411 473 33,000  Level Los Angeles Center
11:10AM 36.6183 -112.4222 178° South 410 472 33,000  Level Los Angeles Center
11:11AM 36.5044 -112.4189 179° South 409 471 33,000  Level Los Angeles Center
11:12AM 36.3669 -112.4122 178° South 410 472 33,000 -300 Level Los Angeles Center
11:13AM 36.2528 -112.4083 178° South 411 473 32,500 -780 Descending Los Angeles Center
11:14AM 36.1378 -112.4036 178° South 411 473 31,500 -1,020 Descending Los Angeles Center
11:15AM 36.0231 -112.4031 180° South 413 475 30,500 -1,080 Descending Los Angeles Center
11:16AM 35.8964 -112.4092 182° South 410 472 29,300 -720 Descending Los Angeles Center
11:17AM 35.7842 -112.4147 182° South 405 466 29,000 -180 Descending Los Angeles Center
11:18AM 35.6278 -112.4228 182° South 402 463 29,000  Level Los Angeles Center
11:19AM 35.5167 -112.4292 183° South 400 460 29,000  Level Los Angeles Center
11:20AM 35.4047 -112.4386 184° South 401 461 29,000  Level Los Angeles Center
11:21AM 35.2908 -112.4139 170° South 410 472 29,000  Level Los Angeles Center
11:22AM 35.1778 -112.3906 170° South 410 472 29,000 -540 Level Los Angeles Center
11:23AM 35.0653 -112.3647 169° South 410 472 27,900 -1,440 Descending Los Angeles Center
11:25AM 34.9333 -112.3378 170° South 402 463 26,100 -1,620 Descending Los Angeles Center
11:26AM 34.8064 -112.3117 170° South 393 452 24,300 -1,560 Descending Albuquerque Center
11:27AM 34.7003 -112.2886 170° South 388 447 22,700 -1,500 Descending Albuquerque Center
11:28AM 34.5992 -112.2658 169° South 380 437 21,300 -1,500 Descending Albuquerque Center
11:29AM 34.5042 -112.2444 169° South 365 420 19,700 -1,440 Descending Albuquerque Center
11:30AM 34.4111 -112.2228 169° South 352 405 18,400 -1,260 Descending Albuquerque Center
11:31AM 34.3200 -112.1981 167° South 344 396 17,100 -1,260 Descending Albuquerque Center
11:32AM 34.2353 -112.1764 168° South 329 379 15,900 -1,320 Descending Albuquerque Center
11:33AM 34.1378 -112.1508 168° South 303 349 14,500 -1,260 Descending Albuquerque Center
11:34AM 34.0558 -112.1406 174° South 297 342 13,300 -1,140 Descending Albuquerque Center
11:35AM 33.9786 -112.1486 185° South 283 326 12,200 -1,200 Descending Albuquerque Center
11:36AM 33.9022 -112.1564 185° South 278 320 10,900 -1,320 Descending Albuquerque Center
11:37AM 33.8289 -112.1736 191° South 271 312 9,500 -1,440 Descending Albuquerque Center
11:38AM 33.7411 -112.1919 190° South 269 310 8,000 -1,080 Descending Albuquerque Center
11:39AM 33.6706 -112.2061 189° South 259 298 7,400 -1,020 Descending Albuquerque Center
11:40AM 33.5975 -112.2147 186° South 265 305 5,900 -1,560 Descending Albuquerque Center
11:41AM 33.5264 -112.2075 175° South 259 298 4,300 -1,080 Descending Albuquerque Center
11:42AM 33.4681 -112.1842 162° South 230 265 3,700 -720 Descending Albuquerque Center
11:43AM 33.4444 -112.1200 114° Southeast 212 244 2,900 -960 Descending Albuquerque Center
11:44AM 33.4403 -112.0631 95° East 170 196 1,800 -900 Descending Albuquerque Center
11:45AM 33.4403 -112.0189 90° East 147 169 1,100 -720 Descending Albuquerque Center
11:47AM 33.4343 -112.0116 270° West  Level Estimated